Date String (YYYY-MM-DD hh:mm:ss) UTC,Instrument flags,absolute air pressure of the measurement (hPa),sample flow rate (lpm),inlet stack bypass flow (lpm),air temperature of the measurement (°C),ambient temperature measured by the external sensor (°C),aerosol sample conditioner tube jacket temperature (°C),OPC LED temperature (°C),internal box temperature (°C),relative humidity of the measurement (%),span deviation,mass concentration of particles derived from Lorenz-Mie calculation of OPC scattering (μg/m³),mass concentration of particles derived from Lorenz-Mie calculation of OPC scattering (μg/m³),mass concentration of particles derived from Lorenz-Mie calculation of OPC scattering (μg/m³)
DateTimeUTC,F1_M11,P_M11,Q1_M11,Q2_M11,T1_M11,T2_M11,T3_M11,T4_M11,T5_M11,U1_M11,ZSPAN_M11,X0_M11,X2_M11,X1_M11
2023-06-18 15:00:00,SystemResetWarning,0826.7,5.00,000.00,029.8,028.2,000.0,038.4,031.3,19.9,0000.0,0008.57,0004.12,0003.75
2023-06-18 15:01:00,SystemResetWarning,0826.8,5.01,000.00,029.8,028.3,000.0,038.4,031.4,19.6,0000.0,0008.20,0004.13,0003.76
2023-06-18 15:02:00,SystemResetWarning,0826.8,5.00,000.00,029.9,028.3,000.0,038.4,031.4,19.5,0000.0,0007.63,0004.13,0003.76
2023-06-18 15:03:00,SystemResetWarning,0826.8,5.01,000.00,029.9,028.4,000.0,038.4,031.4,19.5,0000.0,0006.92,0004.15,0003.76
2023-06-18 15:04:00,SystemResetWarning,0826.8,5.00,000.00,029.9,028.4,000.0,038.4,031.5,19.8,0000.0,0006.84,0004.14,0003.75
2023-06-18 15:05:00,SystemResetWarning,0826.8,5.00,000.00,029.9,028.5,000.0,038.4,031.5,20.1,0000.0,0006.85,0004.12,0003.75
2023-06-18 15:06:00,SystemResetWarning,0826.8,4.98,000.00,030.0,027.1,000.0,038.4,031.5,20.3,0000.0,0007.14,0004.12,0003.75
2023-06-18 15:07:00,SystemResetWarning,0826.8,5.00,000.00,029.9,025.1,000.0,038.3,031.3,20.2,0000.0,0007.26,0004.11,0003.75
2023-06-18 15:08:00,SystemResetWarning,0826.7,5.01,000.00,029.9,025.0,000.0,038.3,031.3,19.8,0000.0,0007.28,0004.12,0003.76
2023-06-18 15:09:00,SystemResetWarning,0826.6,5.02,000.00,029.8,025.3,000.0,038.3,031.1,19.9,0000.0,0007.41,0004.10,0003.76
2023-06-18 15:10:00,SystemResetWarning,0826.6,4.99,000.00,029.7,025.8,000.0,038.3,031.0,21.0,0000.0,0008.33,0004.08,0003.76
2023-06-18 15:11:00,SystemResetWarning,0826.6,5.00,000.00,029.7,026.2,000.0,038.3,031.0,20.4,0000.0,0008.28,0004.08,0003.77
2023-06-18 15:12:00,SystemResetWarning,0826.6,5.01,000.00,029.7,026.6,000.0,038.2,031.1,20.6,0000.0,0008.40,0004.09,0003.77
2023-06-18 15:13:00,SystemResetWarning,0826.6,5.01,000.00,029.7,026.9,000.0,038.2,031.1,21.3,0000.0,0008.58,0004.12,0003.78
2023-06-18 15:14:00,SystemResetWarning,0826.6,4.99,000.00,029.7,027.2,000.0,038.2,031.1,20.6,0000.0,0008.66,0004.11,0003.78
2023-06-18 15:15:00,SystemResetWarning,0826.6,5.00,000.00,029.7,027.4,000.0,038.2,031.1,20.7,0000.0,0008.77,0004.15,0003.79
2023-06-18 15:16:00,SystemResetWarning,0826.6,5.01,000.00,029.7,027.6,000.0,038.2,031.2,20.6,0000.0,0008.76,0004.14,0003.79
2023-06-18 15:17:00,SystemResetWarning,0826.6,5.00,000.00,029.7,027.8,000.0,038.2,031.2,20.6,0000.0,0008.58,0004.13,0003.79
2023-06-18 15:18:00,SystemResetWarning,0826.6,5.00,000.00,029.7,028.0,000.0,038.3,031.3,19.5,0000.0,0008.40,0004.14,0003.79
2023-06-18 15:19:00,SystemResetWarning,0826.6,5.00,000.00,029.7,028.1,000.0,038.3,031.3,19.6,0000.0,0008.39,0004.15,0003.80
2023-06-18 15:20:00,SystemResetWarning,0826.6,5.00,000.00,029.8,028.2,000.0,038.3,031.3,20.7,0000.0,0008.36,0004.15,0003.80
2023-06-18 15:21:00,SystemResetWarning,0826.6,5.00,000.00,029.8,028.2,000.0,038.3,031.4,21.2,0000.0,0007.22,0004.18,0003.82
2023-06-18 15:22:00,SystemResetWarning,0826.6,5.00,000.00,029.8,028.3,000.0,038.3,031.4,20.3,0000.0,0007.34,0004.22,0003.84
2023-06-18 15:23:00,SystemResetWarning,0826.6,5.00,000.00,029.8,028.4,000.0,038.3,031.4,19.6,0000.0,0007.61,0004.27,0003.87
2023-06-18 15:24:00,SystemResetWarning,0826.6,4.99,000.00,029.9,028.1,000.0,038.3,031.5,19.9,0000.0,0007.71,0004.32,0003.88
2023-06-18 15:25:00,SystemResetWarning,0826.5,4.99,000.00,029.9,026.3,000.0,038.3,031.5,19.8,0000.0,0007.73,0004.33,0003.89
2023-06-18 15:26:00,SystemResetWarning,0826.4,5.02,000.00,029.9,025.8,000.0,038.2,031.4,20.7,0000.0,0008.00,0004.32,0003.89
2023-06-18 15:27:00,SystemResetWarning,0826.4,5.00,000.00,029.8,026.0,000.0,038.2,031.2,21.0,0000.0,0009.01,0004.33,0003.89
2023-06-18 15:28:00,SystemResetWarning,0826.4,5.00,000.00,029.7,026.3,000.0,038.2,031.1,21.3,0000.0,0009.16,0004.35,0003.90
2023-06-18 15:29:00,SystemResetWarning,0826.4,5.00,000.00,029.7,026.7,000.0,038.2,031.2,21.5,0000.0,0009.18,0004.36,0003.90
2023-06-18 15:30:00,SystemResetWarning,0826.3,4.99,000.00,029.7,027.0,000.0,038.3,031.2,20.6,0000.0,0009.24,0004.35,0003.90
2023-06-18 15:31:00,SystemResetWarning,0826.4,4.99,000.00,029.7,027.3,000.0,038.3,031.2,21.6,0000.0,0009.32,0004.37,0003.90
2023-06-18 15:32:00,SystemResetWarning,0826.4,5.02,000.00,029.7,027.5,000.0,038.3,031.2,22.0,0000.0,0010.15,0004.37,0003.90
2023-06-18 15:33:00,SystemResetWarning,0826.4,5.00,000.00,029.8,027.7,000.0,038.3,031.3,22.3,0000.0,0010.32,0004.34,0003.88
2023-06-18 15:34:00,SystemResetWarning,0826.3,4.99,000.00,029.8,027.9,000.0,038.3,031.3,21.8,0000.0,0010.16,0004.30,0003.86
2023-06-18 15:35:00,SystemResetWarning,0826.4,5.00,000.00,029.8,028.0,000.0,038.3,031.3,21.1,0000.0,0009.84,0004.26,0003.85
2023-06-18 15:36:00,SystemResetWarning,0826.3,5.00,000.00,029.8,028.1,000.0,038.3,031.3,21.7,0000.0,0009.73,0004.23,0003.85
2023-06-18 15:37:00,SystemResetWarning,0826.4,5.00,000.00,029.8,028.2,000.0,038.3,031.4,20.7,0000.0,0009.39,0004.22,0003.86
2023-06-18 15:38:00,SystemResetWarning,0826.4,5.00,000.00,029.9,028.3,000.0,038.3,031.4,20.2,0000.0,0008.61,0004.23,0003.87
2023-06-18 15:39:00,SystemResetWarning,0826.4,4.98,000.00,029.9,027.0,000.0,038.3,031.4,21.5,0000.0,0008.46,0004.22,0003.86
2023-06-18 15:40:00,SystemResetWarning,0826.3,5.01,000.00,029.8,025.0,000.0,038.2,031.2,21.5,0000.0,0008.45,0004.21,0003.87
2023-06-18 15:41:00,SystemResetWarning,0826.3,5.00,000.00,029.8,024.7,000.0,038.2,031.1,22.3,0000.0,0008.39,0004.21,0003.87
2023-06-18 15:42:00,SystemResetWarning,0826.3,5.01,000.00,029.7,025.1,000.0,038.2,030.8,22.0,0000.0,0008.39,0004.19,0003.87
2023-06-18 15:43:00,SystemResetWarning,0826.3,5.01,000.00,029.6,025.5,000.0,038.2,030.8,22.3,0000.0,0007.86,0004.23,0003.87
2023-06-18 15:44:00,SystemResetWarning,0826.2,4.99,000.00,029.5,026.0,000.0,038.1,030.8,22.5,0000.0,0007.80,0004.28,0003.87
2023-06-18 15:45:00,SystemResetWarning,0826.2,5.00,000.00,029.5,026.4,000.0,038.1,030.8,22.5,0000.0,0007.67,0004.29,0003.88
2023-06-18 15:46:00,SystemResetWarning,0826.2,5.00,000.00,029.5,026.7,000.0,038.1,030.9,21.7,0000.0,0007.65,0004.30,0003.88
2023-06-18 15:47:00,SystemResetWarning,0826.2,5.00,000.00,029.5,027.1,000.0,038.1,030.9,21.6,0000.0,0007.70,0004.31,0003.87
2023-06-18 15:48:00,SystemResetWarning,0826.2,5.00,000.00,029.5,027.3,000.0,038.1,030.9,20.6,0000.0,0007.78,0004.33,0003.87
2023-06-18 15:49:00,SystemResetWarning,0826.2,5.00,000.00,029.5,027.5,000.0,038.1,031.0,20.5,0000.0,0007.62,0004.33,0003.87
2023-06-18 15:50:00,SystemResetWarning,0826.2,5.00,000.00,029.6,027.7,000.0,038.1,031.1,20.9,0000.0,0007.82,0004.37,0003.87
2023-06-18 15:51:00,SystemResetWarning,0826.2,5.00,000.00,029.6,027.9,000.0,038.1,031.2,21.9,0000.0,0007.96,0004.39,0003.87
2023-06-18 15:52:00,SystemResetWarning,0826.2,5.01,000.00,029.6,028.0,000.0,038.1,031.2,21.9,0000.0,0007.95,0004.41,0003.87
2023-06-18 15:53:00,SystemResetWarning,0826.3,4.99,000.00,029.6,028.1,000.0,038.2,031.2,22.0,0000.0,0007.96,0004.40,0003.87
2023-06-18 15:54:00,SystemResetWarning,0826.2,4.99,000.00,029.7,028.2,000.0,038.2,031.3,22.1,0000.0,0008.14,0004.40,0003.87
2023-06-18 15:55:00,SystemResetWarning,0826.3,4.99,000.00,029.7,028.3,000.0,038.2,031.3,21.8,0000.0,0007.92,0004.37,0003.87
2023-06-18 15:56:00,SystemResetWarning,0826.2,4.99,000.00,029.7,027.1,000.0,038.2,031.4,21.3,0000.0,0007.94,0004.37,0003.87
2023-06-18 15:57:00,SystemResetWarning,0826.2,5.01,000.00,029.7,025.6,000.0,038.1,031.3,20.8,0000.0,0008.00,0004.36,0003.86
2023-06-18 15:58:00,SystemResetWarning,0826.2,5.01,000.00,029.7,025.8,000.0,038.1,031.2,20.7,0000.0,0008.03,0004.36,0003.87
2023-06-18 15:59:00,SystemResetWarning,0826.2,5.01,000.00,029.6,026.1,000.0,038.1,031.0,21.3,0000.0,0008.09,0004.37,0003.87
